N257MC KATL-KBNA

Flight info

Callsign N257MC
Flight time N/A
Altitude 26000
Route PENCL2 PENCL JAGIR SWFFT3
Aircraft SF50/L-SDGRWY/L

Departure

Time 2026-05-08 02:31
Airport Hartsfield Jackson Atlanta International Airport (KATL)

Arrival

Time N/A
Airport Nashville International Airport (KBNA)
Time Latitude Longitude Altitude Speed Heading
2026-05-08 02:17 33.65137 -84.42271 1030 ft 0 kts 179°
2026-05-08 02:26 33.65136 -84.42271 1030 ft 0 kts 150°
2026-05-08 02:26 33.65123 -84.42238 1029 ft 9 kts 123°
2026-05-08 02:26 33.65086 -84.42210 1030 ft 6 kts 144°
2026-05-08 02:26 33.65065 -84.42144 1029 ft 11 kts 92°
2026-05-08 02:27 33.65064 -84.42030 1030 ft 20 kts 89°
2026-05-08 02:27 33.65065 -84.41840 1029 ft 23 kts 90°
2026-05-08 02:27 33.65064 -84.41665 1029 ft 19 kts 90°
2026-05-08 02:27 33.65084 -84.41525 1029 ft 15 kts 63°
2026-05-08 02:28 33.65111 -84.41459 1029 ft 12 kts 69°
2026-05-08 02:28 33.65120 -84.41370 1029 ft 11 kts 90°
2026-05-08 02:28 33.65120 -84.41265 1029 ft 13 kts 90°
2026-05-08 02:28 33.65120 -84.41156 1029 ft 14 kts 90°
2026-05-08 02:29 33.65119 -84.41042 1029 ft 14 kts 94°
2026-05-08 02:29 33.65074 -84.40967 1029 ft 11 kts 180°
2026-05-08 02:29 33.65047 -84.40967 1030 ft 0 kts 179°
2026-05-08 02:30 33.65033 -84.40966 1030 ft 6 kts 179°
2026-05-08 02:30 33.64988 -84.40968 1029 ft 7 kts 194°
2026-05-08 02:31 33.64955 -84.41026 1029 ft 11 kts 270°
2026-05-08 02:31 33.64953 -84.41251 1029 ft 62 kts 270°
2026-05-08 02:31 33.64962 -84.42035 1247 ft 109 kts 272°
2026-05-08 02:31 33.65010 -84.42982 1792 ft 122 kts 274°
2026-05-08 02:32 33.64964 -84.44129 2184 ft 151 kts 271°
2026-05-08 02:32 33.64892 -84.45489 2584 ft 174 kts 272°
2026-05-08 02:32 33.65137 -84.46966 2869 ft 194 kts 294°
2026-05-08 02:32 33.65719 -84.48445 3423 ft 196 kts 296°
2026-05-08 02:33 33.66287 -84.49978 3766 ft 211 kts 295°
2026-05-08 02:33 33.66912 -84.51673 3786 ft 230 kts 295°
2026-05-08 02:33 33.67583 -84.53467 3805 ft 240 kts 295°
2026-05-08 02:33 33.68459 -84.55186 3809 ft 244 kts 309°